Weather in Banychi

Ukraine / Sumi District     51°30′42″N   33°55′12″E
temp.,
°C
wind,
m/s
gust,
m/s
humid.,
%
clouds,
%
prec.,
mm/h
press.,
hPa
HPBL,
m
21 october, thu
thu2100:00+10ssw91965100 0.1 1015727
03:00+10sw81767100 0.1 1014554
06:00+9ssw8167479 0.1 1012433
09:00+10sw81773100 0.1 1011520
12:00+14sw9156093 0.0 1010645
15:00+15ssw8155893 0.0 1009770
18:00+13ssw91760100 0.0 1007689
21:00+13ssw9185874 0.0 1006788
22 october, fri
fri2200:00+12ssw91769100 0.0 1004559
03:00+10sw7167281 0.0 1005482
06:00+11sw6136599 0.0 1004441
09:00+12wsw7137050 0.0 1007962
12:00+14w914515 0.0 10091474
15:00+15wsw714487 0.0 10092022
18:00+12w713466 0.0 1010693
21:00+8sw410625 0.0 1012205
23 october, sat
sat2300:00+8sw412625 0.0 1012413
03:00+8sw5136535 0.0 1011372
06:00+8wsw614641 0.0 1011594
09:00+8wsw611695 0.0 1012831
12:00+10w811485 0.0 10131392
15:00+10w81151100 0.0 10131669
18:00+6w510685 0.3 1015360
21:00+5w513755 0.3 1017614
24 october, sun
sun2400:00+4w5107777 0.0 1018678
03:00+4sw5117686 0.0 1017456
06:00+6w61071100 0.0 1017878
09:00+5w6981100 0.2 10191059
12:00+5w7106784 0.1 10201190
15:00+3nw81294100 0.6 1020816
18:00+2nw7129099 0.3 1022936
21:00+2nnw8137796 0.3 1024946
25 october, mon
mon2500:00+2nnw71071100 0.1 10261080
03:000nnw6108348 0.1 1028722
06:00−2n4109328 0.0 1030394
09:00−1n49845 0.0 1032364
12:00+3nne455444 0.0 10331093
15:00+4n45475 0.0 10331136
18:00+1nne33600 0.0 103534
21:000ene22660 0.0 103528